STARLINK-32317, 60918

Orbit data source: Space-Track

STARLINK-32317, 60918 is a payload satellite owned by SpaceX/Seattle (US) in LEO that was launched on Sat, 31 Aug 2024 UTC via an FALCON 9 launch vehicle from the Air Force Eastern Test Range (AFETR). Payload-class satellites include a variety of spacecraft equipped with specific instruments for various scientific and technological missions. These include communications satellites like Starlink; space stations such as the ISS; scientific satellites like the Hubble; Earth observation satellites from companies like Planet Labs, Umbra, and HawkEye 360; GPS; miniature CubeSats for education and research; and military/defense satellites.

Loading next visibility...
Identifier
60918, 2024-154R
Orbit
LEO
Country
Flag of USUS
Related business
Manufacturer
SpaceX/Seattle
Mission
Operational Commercial Communications
Bus & Motor
STARLINK V2M, Unknown motor
Mass
730 kg wet, ~700 kg dry
Launch date (UTC)
2024-08-31 (2 years ago)
Launch vehicle
FALCON 9
Launch site
Air Force Eastern Test Range (AFETR)
Object type
Payload
Rocket body
Debris
Shape & HBR
Box + 2 Pan, 17.7 m
Radar Cross Section
33.884 m², Large (>1 m²)

Expand to show TLE details & history
Last TLE update: 1 day ago

TLE from 1 day ago
0 STARLINK-32317
1 60918U 24154R   26175.16979815 -.00000595  00000-0 -79564-5 0  9994
2 60918  53.1595 149.5316 0001209  93.3289 266.7850 15.30181956102634
Epoch: 2026-06-24T04:04Z
TLE epoch observation values (Epoch: 2026-06-24T04:04:30.560Z)
Latitude
-0.00001°
Longitude
176.0734°
Altitude
476.215 km
Speed
7.629 km/s
True Right ascension
09h 58m 07s
True Declination
0° 00' 00"
Sunlit
Object was in daylight at epoch
Visualization orbit readout
Latitude
Unknown
Longitude
Unknown
Altitude
Unknown
Speed
Unknown
Apparent Right ascension
Unknown
Apparent Declination
Unknown
Sunlit
N/A
Visualization observer readout
Local Sidereal Time
17:00:26
Azimuth
Unknown
Elevation
Unknown
Doppler factor
Unknown
Orbital elements
Apogee altitude
476.354 km
Perigee altitude
474.697 km
Semi-major axis
6,853.662 km
Eccentricity
0.00012
Inclination
53.1595°
RAAN
149.5316°
Arg. of periapsis
93.3289°
True anomaly
266.77117°
Mean anomaly
266.785°
Eccentric anomaly
266.77808°
Mean motion
3.82524 °/min
Orbital period
94.11 mins
BSTAR
-0.0000079564
Loading maneuver chart data...
Computing Atmospheric mass density...
Loading historical data...
Loading historical data...
Loading historical data...
Loading historical data...
Loading historical data...
Loading historical data...
Loading historical data...

Documentation

Showing up to 5 results
|